Location: Chilton Park
(37.7711°N, 100.0276°W)
Time: 17:30:37
(UTC+00:00)

Cosmos 2227 Rocket - Pass Details

Date: 08 July 2022
Orbit: 840 x 844 km, 71.0° (Epoch: 18 August)

Event Time Altitude Azimuth Distance (km) Brightness Sun altitude
Exits shadow 09:11:56 28° 262° (W) 1,522 3.2 -20.6°
Maximum altitude 09:13:47 35° 299° (WNW) 1,325 3.1 -20.4°
Drops below altitude 10° 09:18:58 10° 5° (N) 2,469 5.4 -19.8°
Sets 09:21:38 0° 14° (NNE) 3,408 6.5 -19.5°
